Location: Contre
(49.7477°N, 2.0963°E)
Time: 13:23:43
(UTC+00:00)

YAOGAN 1 - Pass Details

Date: 03 February 2023
Orbit: 616 x 618 km, 97.8° (Epoch: 22 March)

Event Time Altitude Azimuth Distance (km) Brightness Sun altitude
Rises 18:07:15 0° 152° (SSE) 2,882 5.8 -12.8°
Reaches altitude 10° 18:09:27 10° 148° (SSE) 1,982 4.9 -13.1°
Maximum altitude 18:13:40 54° 71° (ENE) 755 2.6 -13.8°
Drops below altitude 10° 18:17:54 10° 354° (N) 1,997 5.1 -14.5°
Sets 18:20:07 0° 350° (N) 2,908 6.0 -14.8°
